DAL1123 KATL-KDTW

Flight info

Callsign DAL1123
Flight time 1h 44m
Altitude 35000
Route PADGT2 SMTTH Q67 HNN SUBWY HTROD2
Aircraft A21N/M-SDE2E3FGHIRWXY/LB1

Departure

Time 2026-05-04 22:25
Airport Hartsfield Jackson Atlanta International Airport (KATL)

Arrival

Time 2026-05-05 00:09
Airport Detroit Metropolitan Wayne County Airport (KDTW)
Time Latitude Longitude Altitude Speed Heading
2026-05-04 21:45 33.64305 -84.43642 1012 ft 0 kts 89°
2026-05-04 22:13 33.64304 -84.43666 1012 ft 4 kts 83°
2026-05-04 22:14 33.64298 -84.43697 1012 ft 4 kts 66°
2026-05-04 22:14 33.64285 -84.43721 1012 ft 1 kts 44°
2026-05-04 22:14 33.64285 -84.43722 1012 ft 0 kts 44°
2026-05-04 22:17 33.64299 -84.43715 1012 ft 5 kts 358°
2026-05-04 22:17 33.64341 -84.43721 1012 ft 7 kts 356°
2026-05-04 22:17 33.64399 -84.43724 1012 ft 9 kts 358°
2026-05-04 22:18 33.64454 -84.43680 1012 ft 11 kts 65°
2026-05-04 22:18 33.64451 -84.43580 1012 ft 13 kts 91°
2026-05-04 22:18 33.64456 -84.43461 1012 ft 15 kts 84°
2026-05-04 22:18 33.64463 -84.43328 1012 ft 17 kts 87°
2026-05-04 22:19 33.64469 -84.43182 1012 ft 18 kts 87°
2026-05-04 22:19 33.64463 -84.43023 1012 ft 20 kts 85°
2026-05-04 22:19 33.64471 -84.42854 1012 ft 21 kts 92°
2026-05-04 22:19 33.64463 -84.42671 1012 ft 22 kts 91°
2026-05-04 22:20 33.64470 -84.42478 1011 ft 24 kts 88°
2026-05-04 22:20 33.64473 -84.42274 1011 ft 25 kts 80°
2026-05-04 22:20 33.64527 -84.42157 1011 ft 15 kts 63°
2026-05-04 22:20 33.64545 -84.42030 1011 ft 17 kts 87°
2026-05-04 22:21 33.64544 -84.41885 1012 ft 18 kts 91°
2026-05-04 22:21 33.64542 -84.41725 1012 ft 20 kts 91°
2026-05-04 22:21 33.64539 -84.41559 1012 ft 21 kts 91°
2026-05-04 22:21 33.64537 -84.41375 1012 ft 22 kts 90°
2026-05-04 22:22 33.64538 -84.41183 1012 ft 24 kts 89°
2026-05-04 22:22 33.64541 -84.40978 1012 ft 25 kts 89°
2026-05-04 22:22 33.64564 -84.40787 1011 ft 21 kts 72°
2026-05-04 22:22 33.64569 -84.40635 1011 ft 11 kts 92°
2026-05-04 22:23 33.64569 -84.40614 1011 ft 0 kts 72°
2026-05-04 22:23 33.64574 -84.40597 1011 ft 4 kts 72°
2026-05-04 22:24 33.64608 -84.40567 1010 ft 9 kts
2026-05-04 22:24 33.64668 -84.40614 1009 ft 14 kts 285°
2026-05-04 22:24 33.64679 -84.40752 1010 ft 27 kts 275°
2026-05-04 22:24 33.64680 -84.41269 1013 ft 96 kts 270°
2026-05-04 22:25 33.64680 -84.42284 1010 ft 145 kts 270°
2026-05-04 22:25 33.64679 -84.43624 1275 ft 161 kts 269°
2026-05-04 22:25 33.64706 -84.44964 1855 ft 165 kts 269°
2026-05-04 22:25 33.64783 -84.46289 2430 ft 173 kts 276°
2026-05-04 22:26 33.65174 -84.47703 2999 ft 186 kts 295°
2026-05-04 22:26 33.65774 -84.49118 3597 ft 197 kts 294°
2026-05-04 22:26 33.66374 -84.50657 4226 ft 210 kts 291°
2026-05-04 22:26 33.66977 -84.52315 4806 ft 226 kts 292°
2026-05-04 22:27 33.67774 -84.54077 5171 ft 253 kts 303°
2026-05-04 22:27 33.68803 -84.55904 5644 ft 272 kts 302°
2026-05-04 22:27 33.70027 -84.57620 6651 ft 273 kts 323°
2026-05-04 22:27 33.71792 -84.58421 7355 ft 284 kts 354°
2026-05-04 22:28 33.73797 -84.58312 8118 ft 291 kts
2026-05-04 22:28 33.75816 -84.58173 9080 ft 289 kts
2026-05-04 22:28 33.77808 -84.58098 9980 ft 289 kts 359°
2026-05-04 22:28 33.79844 -84.58074 10680 ft 294 kts 358°
2026-05-04 22:29 33.81916 -84.57814 11342 ft 304 kts 11°
2026-05-04 22:29 33.84023 -84.57101 11703 ft 324 kts 15°
2026-05-04 22:29 33.86240 -84.56253 11978 ft 344 kts 16°
2026-05-04 22:29 33.88593 -84.55353 12260 ft 363 kts 15°
2026-05-04 22:30 33.91066 -84.54429 12536 ft 381 kts 15°
2026-05-04 22:30 33.93665 -84.53471 12804 ft 398 kts 15°
2026-05-04 22:30 33.96338 -84.52486 13058 ft 412 kts 15°
2026-05-04 22:30 33.99096 -84.51467 13581 ft 418 kts 15°
2026-05-04 22:31 34.01901 -84.50429 14156 ft 420 kts 15°
2026-05-04 22:31 34.04713 -84.49390 14665 ft 423 kts 15°
2026-05-04 22:31 34.07514 -84.48355 15209 ft 427 kts 15°
2026-05-04 22:31 34.10372 -84.47297 15809 ft 430 kts 14°
2026-05-04 22:32 34.13254 -84.46228 16416 ft 434 kts 14°
2026-05-04 22:32 34.16150 -84.45155 16973 ft 438 kts 14°
2026-05-04 22:32 34.19082 -84.44069 17531 ft 442 kts 14°
2026-05-04 22:32 34.22033 -84.42974 18080 ft 446 kts 14°
2026-05-04 22:33 34.25011 -84.41866 18576 ft 449 kts 14°
2026-05-04 22:33 34.27973 -84.40763 19027 ft 452 kts 14°
2026-05-04 22:33 34.31029 -84.39792 19483 ft 452 kts
2026-05-04 22:33 34.34142 -84.39030 19956 ft 455 kts
2026-05-04 22:34 34.37233 -84.38290 20401 ft 458 kts
2026-05-04 22:34 34.40395 -84.37534 20837 ft 461 kts
2026-05-04 22:34 34.43557 -84.36769 21315 ft 464 kts
2026-05-04 22:34 34.46699 -84.36013 21828 ft 467 kts
2026-05-04 22:35 34.49908 -84.35241 22286 ft 470 kts
2026-05-04 22:35 34.53134 -84.34463 22727 ft 474 kts
2026-05-04 22:35 34.56372 -84.33680 23143 ft 476 kts
2026-05-04 22:35 34.59631 -84.32896 23534 ft 480 kts
2026-05-04 22:36 34.62920 -84.32108 23899 ft 482 kts
2026-05-04 22:36 34.66221 -84.31311 24252 ft 484 kts
2026-05-04 22:36 34.69534 -84.30508 24671 ft 484 kts
2026-05-04 22:36 34.72835 -84.29704 25165 ft 482 kts
2026-05-04 22:37 34.76082 -84.28912 25625 ft 481 kts
2026-05-04 22:37 34.79364 -84.28107 26106 ft 479 kts
2026-05-04 22:37 34.82629 -84.27304 26553 ft 478 kts
2026-05-04 22:37 34.85896 -84.26509 27030 ft 477 kts
2026-05-04 22:38 34.89144 -84.25730 27509 ft 475 kts
2026-05-04 22:38 34.92380 -84.24948 27991 ft 474 kts
2026-05-04 22:38 34.95624 -84.24162 28479 ft 471 kts
2026-05-04 22:38 34.98837 -84.23380 28945 ft 470 kts
2026-05-04 22:39 35.02007 -84.22607 29403 ft 469 kts
2026-05-04 22:39 35.05198 -84.21828 29831 ft 467 kts
2026-05-04 22:39 35.08392 -84.21045 30212 ft 467 kts
2026-05-04 22:39 35.11578 -84.20265 30528 ft 466 kts
2026-05-04 22:40 35.14766 -84.19483 30867 ft 466 kts
2026-05-04 22:40 35.17944 -84.18702 31188 ft 465 kts
2026-05-04 22:40 35.21118 -84.17924 31493 ft 464 kts
2026-05-04 22:40 35.24262 -84.17150 31791 ft 464 kts
2026-05-04 22:41 35.27431 -84.16368 32095 ft 463 kts
2026-05-04 22:41 35.30562 -84.15595 32390 ft 463 kts
2026-05-04 22:41 35.33723 -84.14815 32667 ft 462 kts
2026-05-04 22:41 35.36886 -84.14036 32941 ft 462 kts
2026-05-04 22:42 35.40035 -84.13262 33221 ft 461 kts
2026-05-04 22:42 35.43174 -84.12486 33484 ft 460 kts
2026-05-04 22:42 35.46321 -84.11707 33762 ft 460 kts
2026-05-04 22:42 35.49456 -84.10927 33998 ft 460 kts
2026-05-04 22:43 35.52561 -84.10158 34215 ft 459 kts
2026-05-04 22:43 35.55702 -84.09383 34407 ft 459 kts
2026-05-04 22:43 35.58834 -84.08607 34582 ft 459 kts
2026-05-04 22:43 35.61981 -84.07823 34777 ft 459 kts
2026-05-04 22:44 35.65072 -84.07054 34955 ft 459 kts
2026-05-04 22:44 35.71346 -84.05507 35001 ft 459 kts
2026-05-04 22:45 35.77614 -84.03944 34978 ft 459 kts
2026-05-04 22:45 35.87024 -84.01597 34968 ft 459 kts
2026-05-04 22:46 35.93137 -83.99212 34971 ft 472 kts 21°
2026-05-04 22:46 35.98869 -83.95160 34974 ft 476 kts 25°
2026-05-04 22:47 36.04576 -83.91011 34975 ft 475 kts 24°
2026-05-04 22:47 36.10308 -83.86908 34975 ft 475 kts 24°
2026-05-04 22:48 36.16036 -83.82801 34965 ft 476 kts 24°
2026-05-04 22:48 36.21742 -83.78707 34960 ft 476 kts 24°
2026-05-04 22:49 36.27483 -83.74583 34948 ft 476 kts 24°
2026-05-04 22:49 36.31984 -83.71348 34958 ft 476 kts 24°
2026-05-04 22:50 36.38653 -83.66546 34958 ft 476 kts 24°
2026-05-04 22:50 36.43343 -83.63163 34955 ft 480 kts 24°
2026-05-04 22:51 36.49172 -83.58951 34947 ft 486 kts 24°
2026-05-04 22:51 36.55032 -83.54705 34943 ft 488 kts 24°
2026-05-04 22:52 36.60899 -83.50451 34940 ft 488 kts 24°
2026-05-04 22:52 36.66762 -83.46194 34935 ft 487 kts 24°
2026-05-04 22:53 36.72591 -83.41950 34940 ft 487 kts 24°
2026-05-04 22:53 36.78450 -83.37676 34930 ft 488 kts 24°
2026-05-04 22:54 36.84305 -83.33375 34929 ft 488 kts 24°
2026-05-04 22:54 36.90158 -83.29068 34915 ft 488 kts 24°
2026-05-04 22:55 36.96016 -83.24740 34921 ft 489 kts 24°
2026-05-04 22:55 37.01882 -83.20406 34925 ft 489 kts 23°
2026-05-04 22:56 37.07750 -83.16100 34924 ft 489 kts 23°
2026-05-04 22:56 37.13586 -83.11788 34936 ft 489 kts 23°
2026-05-04 22:57 37.19451 -83.07432 34934 ft 489 kts 23°
2026-05-04 22:57 37.25301 -83.03097 34932 ft 488 kts 22°
2026-05-04 22:58 37.31295 -82.99131 34927 ft 487 kts 20°
2026-05-04 22:58 37.37314 -82.95180 34923 ft 487 kts 20°
2026-05-04 22:59 37.43291 -82.91252 34919 ft 487 kts 20°
2026-05-04 22:59 37.49307 -82.87295 34924 ft 487 kts 20°
2026-05-04 23:00 37.55325 -82.83342 34924 ft 487 kts 20°
2026-05-04 23:00 37.61308 -82.79394 34921 ft 487 kts 19°
2026-05-04 23:01 37.67300 -82.75435 34935 ft 487 kts 19°
2026-05-04 23:01 37.73304 -82.71456 34939 ft 487 kts 19°
2026-05-04 23:02 37.79306 -82.67476 34930 ft 486 kts 19°
2026-05-04 23:02 37.85309 -82.63476 34929 ft 487 kts 19°
2026-05-04 23:03 37.91279 -82.59478 34920 ft 487 kts 19°
2026-05-04 23:03 37.97288 -82.55489 34907 ft 486 kts 19°
2026-05-04 23:04 38.03304 -82.51474 34885 ft 487 kts 19°
2026-05-04 23:04 38.09261 -82.47478 34861 ft 487 kts 19°
2026-05-04 23:05 38.15245 -82.43460 34856 ft 486 kts 19°
2026-05-04 23:05 38.21229 -82.39424 34858 ft 486 kts 19°
2026-05-04 23:06 38.27205 -82.35394 34865 ft 486 kts 19°
2026-05-04 23:06 38.33179 -82.31364 34862 ft 486 kts 19°
2026-05-04 23:07 38.39121 -82.27342 34860 ft 485 kts 19°
2026-05-04 23:07 38.45096 -82.23294 34861 ft 485 kts 19°
2026-05-04 23:08 38.51055 -82.19252 34867 ft 484 kts 19°
2026-05-04 23:08 38.56970 -82.15231 34856 ft 485 kts 19°
2026-05-04 23:09 38.62951 -82.11154 34860 ft 484 kts 19°
2026-05-04 23:09 38.68862 -82.07114 34856 ft 484 kts 20°
2026-05-04 23:10 38.74958 -82.03704 34853 ft 467 kts
2026-05-04 23:10 38.78118 -82.03180 34856 ft 451 kts 352°
2026-05-04 23:10 38.81205 -82.03439 34863 ft 441 kts 345°
2026-05-04 23:11 38.87247 -82.04441 34861 ft 439 kts 344°
2026-05-04 23:11 38.93327 -82.05434 34852 ft 440 kts 344°
2026-05-04 23:12 38.99388 -82.06401 34854 ft 440 kts 345°
2026-05-04 23:12 39.05462 -82.07358 34846 ft 440 kts 345°
2026-05-04 23:13 39.11557 -82.08319 34845 ft 440 kts 345°
2026-05-04 23:13 39.17652 -82.09289 34840 ft 440 kts 345°
2026-05-04 23:14 39.23743 -82.10255 34844 ft 440 kts 345°
2026-05-04 23:14 39.29812 -82.11213 34838 ft 441 kts 345°
2026-05-04 23:15 39.35876 -82.12188 34837 ft 440 kts 345°
2026-05-04 23:15 39.41960 -82.13162 34833 ft 441 kts 345°
2026-05-04 23:16 39.48070 -82.14140 34838 ft 441 kts 345°
2026-05-04 23:16 39.54172 -82.15118 34828 ft 442 kts 345°
2026-05-04 23:17 39.60241 -82.16089 34827 ft 441 kts 345°
2026-05-04 23:17 39.66339 -82.17072 34824 ft 441 kts 345°
2026-05-04 23:18 39.72446 -82.18060 34824 ft 442 kts 346°
2026-05-04 23:18 39.78525 -82.19034 34820 ft 442 kts 346°
2026-05-04 23:19 39.84623 -82.20017 34821 ft 442 kts 346°
2026-05-04 23:19 39.90737 -82.21013 34810 ft 442 kts 346°
2026-05-04 23:20 39.96873 -82.22011 34811 ft 443 kts 346°
2026-05-04 23:20 40.02972 -82.22996 34805 ft 443 kts 346°
2026-05-04 23:21 40.09101 -82.23997 34808 ft 444 kts 346°
2026-05-04 23:21 40.15211 -82.24994 34802 ft 444 kts 346°
2026-05-04 23:22 40.21349 -82.25997 34803 ft 445 kts 346°
2026-05-04 23:22 40.27489 -82.27006 34789 ft 445 kts 346°
2026-05-04 23:23 40.33650 -82.28017 34784 ft 446 kts 346°
2026-05-04 23:23 40.39786 -82.29021 34774 ft 446 kts 346°
2026-05-04 23:24 40.45953 -82.30038 34772 ft 447 kts 346°
2026-05-04 23:24 40.51993 -82.31657 34765 ft 439 kts 337°
2026-05-04 23:25 40.57816 -82.34128 34761 ft 440 kts 336°
2026-05-04 23:25 40.63622 -82.36584 34751 ft 440 kts 336°
2026-05-04 23:26 40.66533 -82.37804 34412 ft 440 kts 338°
2026-05-04 23:26 40.69499 -82.39045 34095 ft 449 kts 339°
2026-05-04 23:26 40.72484 -82.40292 33844 ft 452 kts 339°
2026-05-04 23:26 40.75487 -82.41548 33575 ft 453 kts 339°
2026-05-04 23:27 40.78506 -82.42815 33296 ft 454 kts 339°
2026-05-04 23:27 40.81530 -82.44083 32990 ft 455 kts 339°
2026-05-04 23:27 40.84512 -82.45340 32442 ft 455 kts 339°
2026-05-04 23:27 40.87543 -82.46612 31769 ft 456 kts 339°
2026-05-04 23:28 40.90573 -82.47889 31066 ft 458 kts 339°
2026-05-04 23:28 40.93618 -82.49173 30360 ft 460 kts 339°
2026-05-04 23:28 40.96672 -82.50457 29607 ft 462 kts 339°
2026-05-04 23:28 40.99747 -82.51755 28753 ft 464 kts 339°
2026-05-04 23:29 41.02836 -82.53063 27936 ft 467 kts 339°
2026-05-04 23:29 41.05937 -82.54369 27165 ft 469 kts 339°
2026-05-04 23:29 41.09052 -82.55689 26471 ft 466 kts 339°
2026-05-04 23:29 41.12080 -82.57022 26061 ft 450 kts 338°
2026-05-04 23:30 41.14984 -82.58319 25781 ft 433 kts 338°
2026-05-04 23:30 41.17765 -82.59577 25522 ft 417 kts 337°
2026-05-04 23:30 41.20404 -82.60782 25298 ft 402 kts 338°
2026-05-04 23:30 41.23070 -82.61965 25070 ft 387 kts 338°
2026-05-04 23:31 41.25601 -82.63076 24691 ft 378 kts 338°
2026-05-04 23:31 41.28063 -82.64171 24170 ft 374 kts 336°
2026-05-04 23:31 41.30437 -82.65535 23664 ft 368 kts 328°
2026-05-04 23:31 41.32661 -82.67208 23302 ft 366 kts 326°
2026-05-04 23:32 41.34855 -82.68925 22938 ft 364 kts 326°
2026-05-04 23:32 41.37011 -82.70609 22595 ft 362 kts 326°
2026-05-04 23:32 41.39184 -82.72296 22263 ft 360 kts 326°
2026-05-04 23:32 41.41340 -82.73964 21936 ft 358 kts 326°
2026-05-04 23:33 41.43491 -82.75625 21600 ft 356 kts 326°
2026-05-04 23:33 41.45628 -82.77276 21275 ft 354 kts 326°
2026-05-04 23:33 41.47069 -82.78389 21043 ft 353 kts 326°
2026-05-04 23:33 41.49191 -82.80028 20733 ft 352 kts 326°
2026-05-04 23:34 41.51295 -82.81656 20407 ft 350 kts 325°
2026-05-04 23:34 41.53373 -82.83269 20091 ft 348 kts 325°
2026-05-04 23:34 41.55477 -82.84902 19762 ft 342 kts 325°
2026-05-04 23:34 41.57514 -82.86479 19448 ft 336 kts 325°
2026-05-04 23:35 41.59526 -82.88037 19136 ft 332 kts 325°
2026-05-04 23:35 41.61521 -82.89588 18832 ft 331 kts 325°
2026-05-04 23:35 41.63511 -82.91133 18532 ft 330 kts 325°
2026-05-04 23:35 41.65464 -82.92650 18233 ft 328 kts 324°
2026-05-04 23:36 41.67420 -82.94273 17910 ft 324 kts 319°
2026-05-04 23:36 41.69158 -82.96162 17581 ft 320 kts 315°
2026-05-04 23:36 41.70834 -82.98105 17263 ft 318 kts 314°
2026-05-04 23:36 41.72497 -83.00039 16955 ft 316 kts 314°
2026-05-04 23:37 41.74160 -83.01965 16656 ft 314 kts 314°
2026-05-04 23:37 41.75807 -83.03868 16364 ft 313 kts 314°
2026-05-04 23:37 41.77454 -83.05769 16071 ft 311 kts 314°
2026-05-04 23:37 41.79090 -83.07658 15772 ft 310 kts 314°
2026-05-04 23:38 41.80694 -83.09509 15467 ft 308 kts 314°
2026-05-04 23:38 41.82333 -83.11403 15179 ft 306 kts 314°
2026-05-04 23:38 41.83937 -83.13259 14886 ft 305 kts 314°
2026-05-04 23:38 41.85539 -83.15112 14595 ft 303 kts 314°
2026-05-04 23:39 41.87133 -83.16910 14321 ft 303 kts 315°
2026-05-04 23:39 41.88746 -83.18705 14048 ft 301 kts 315°
2026-05-04 23:39 41.90362 -83.20508 13774 ft 308 kts 314°
2026-05-04 23:39 41.92069 -83.22424 13557 ft 326 kts 315°
2026-05-04 23:40 41.92656 -83.23081 13461 ft 323 kts 315°
2026-05-04 23:41 41.92696 -83.23125 13453 ft 323 kts 315°
2026-05-04 23:41 41.93024 -83.23490 13392 ft 321 kts 315°
2026-05-04 23:41 41.93567 -83.24094 13300 ft 318 kts 315°
2026-05-04 23:41 41.95203 -83.25921 13039 ft 318 kts 315°
2026-05-04 23:42 41.96906 -83.27828 12777 ft 317 kts 315°
2026-05-04 23:42 41.98593 -83.29719 12515 ft 314 kts 315°
2026-05-04 23:42 42.00238 -83.31562 12293 ft 301 kts 315°
2026-05-04 23:42 42.01806 -83.33320 12122 ft 287 kts 314°
2026-05-04 23:43 42.03310 -83.35012 11986 ft 278 kts 314°
2026-05-04 23:43 42.04968 -83.36569 11980 ft 311 kts 329°
2026-05-04 23:43 42.07189 -83.37337 12018 ft 352 kts 349°
2026-05-04 23:43 42.09749 -83.37044 12038 ft 389 kts
2026-05-04 23:44 42.12367 -83.35650 12044 ft 421 kts 24°
2026-05-04 23:44 42.14894 -83.33622 12036 ft 423 kts 28°
2026-05-04 23:44 42.17138 -83.31654 12017 ft 417 kts 29°
2026-05-04 23:44 42.19377 -83.29284 11982 ft 404 kts 43°
2026-05-04 23:45 42.20952 -83.26257 11971 ft 387 kts 62°
2026-05-04 23:45 42.21897 -83.22952 11987 ft 367 kts 69°
2026-05-04 23:45 42.22726 -83.19790 11981 ft 347 kts 68°
2026-05-04 23:45 42.23569 -83.16820 12005 ft 336 kts 66°
2026-05-04 23:46 42.24449 -83.13907 11997 ft 338 kts 65°
2026-05-04 23:46 42.25725 -83.11105 12015 ft 362 kts 46°
2026-05-04 23:46 42.27632 -83.08765 11892 ft 381 kts 30°
2026-05-04 23:46 42.29998 -83.07153 11312 ft 378 kts 16°
2026-05-04 23:47 42.32431 -83.05997 11007 ft 363 kts 13°
2026-05-04 23:47 42.34777 -83.04957 10723 ft 346 kts 13°
2026-05-04 23:47 42.37015 -83.03973 10481 ft 329 kts 13°
2026-05-04 23:47 42.39137 -83.03035 10112 ft 314 kts 12°
2026-05-04 23:48 42.41165 -83.02132 9723 ft 301 kts 12°
2026-05-04 23:48 42.43115 -83.01264 9242 ft 292 kts 12°
2026-05-04 23:48 42.45036 -83.00405 8604 ft 289 kts 12°
2026-05-04 23:48 42.46939 -82.99558 7945 ft 287 kts 12°
2026-05-04 23:49 42.48831 -82.98718 7301 ft 285 kts 12°
2026-05-04 23:49 42.50711 -82.97910 6668 ft 281 kts
2026-05-04 23:49 42.52596 -82.97841 6087 ft 263 kts 340°
2026-05-04 23:49 42.54159 -82.98809 5673 ft 236 kts 312°
2026-05-04 23:50 42.55081 -83.00461 5318 ft 208 kts 284°
2026-05-04 23:50 42.55259 -83.02313 5038 ft 196 kts 264°
2026-05-04 23:50 42.54901 -83.04062 4978 ft 195 kts 239°
2026-05-04 23:50 42.54094 -83.05527 4999 ft 197 kts 233°
2026-05-04 23:51 42.53208 -83.06953 5071 ft 197 kts 232°
2026-05-04 23:51 42.52315 -83.08368 5056 ft 198 kts 232°
2026-05-04 23:51 42.51423 -83.09784 5020 ft 197 kts 233°
2026-05-04 23:51 42.50532 -83.11196 4997 ft 195 kts 232°
2026-05-04 23:52 42.49661 -83.12576 4721 ft 190 kts 232°
2026-05-04 23:52 42.48792 -83.13970 4590 ft 193 kts 233°
2026-05-04 23:52 42.47923 -83.15361 4940 ft 197 kts 233°
2026-05-04 23:52 42.47036 -83.16772 5005 ft 196 kts 232°
2026-05-04 23:53 42.45978 -83.17964 5002 ft 200 kts 219°
2026-05-04 23:53 42.44773 -83.18941 4968 ft 203 kts 215°
2026-05-04 23:53 42.43536 -83.19867 4819 ft 202 kts 215°
2026-05-04 23:53 42.42307 -83.20781 4610 ft 200 kts 215°
2026-05-04 23:54 42.41098 -83.21681 4378 ft 197 kts 214°
2026-05-04 23:54 42.39897 -83.22573 4133 ft 197 kts 214°
2026-05-04 23:54 42.38712 -83.23454 3890 ft 196 kts 214°
2026-05-04 23:54 42.37521 -83.24338 3641 ft 194 kts 214°
2026-05-04 23:55 42.36269 -83.25043 3490 ft 200 kts 201°
2026-05-04 23:55 42.34850 -83.25175 3334 ft 209 kts 184°
2026-05-04 23:55 42.32065 -83.25428 2952 ft 193 kts 208°
2026-05-04 23:56 42.30983 -83.26410 2849 ft 187 kts 223°
2026-05-04 23:56 42.30033 -83.27615 3000 ft 189 kts 227°
2026-05-04 23:56 42.29211 -83.29009 3134 ft 190 kts 244°
2026-05-04 23:56 42.29110 -83.30764 3767 ft 195 kts 280°
2026-05-04 23:57 42.29802 -83.32381 4450 ft 208 kts 309°
2026-05-04 23:57 42.31109 -83.33372 4823 ft 227 kts 338°
2026-05-04 23:57 42.32737 -83.33397 4972 ft 244 kts
2026-05-04 23:57 42.34301 -83.32513 5025 ft 252 kts 21°
2026-05-04 23:58 42.35848 -83.31390 5021 ft 253 kts 22°
2026-05-04 23:58 42.37391 -83.30248 5022 ft 252 kts 22°
2026-05-04 23:58 42.38911 -83.29119 5009 ft 252 kts 22°
2026-05-04 23:58 42.40456 -83.27969 5005 ft 253 kts 22°
2026-05-04 23:59 42.42000 -83.26820 4997 ft 253 kts 23°
2026-05-04 23:59 42.43544 -83.25680 4992 ft 253 kts 22°
2026-05-04 23:59 42.45089 -83.24540 4990 ft 253 kts 22°
2026-05-04 23:59 42.46637 -83.23396 4996 ft 253 kts 22°
2026-05-05 00:00 42.48168 -83.22265 4991 ft 253 kts 22°
2026-05-05 00:00 42.48689 -83.21880 4993 ft 253 kts 22°
2026-05-05 00:00 42.51236 -83.19892 4979 ft 257 kts 36°
2026-05-05 00:00 42.52328 -83.17963 4978 ft 263 kts 66°
2026-05-05 00:01 42.52682 -83.15551 4981 ft 261 kts 96°
2026-05-05 00:01 42.52221 -83.13233 4983 ft 251 kts 127°
2026-05-05 00:01 42.51177 -83.11428 5008 ft 244 kts 141°
2026-05-05 00:01 42.49938 -83.09906 4993 ft 235 kts 158°
2026-05-05 00:02 42.48464 -83.09201 4998 ft 219 kts 184°
2026-05-05 00:02 42.47002 -83.09422 5017 ft 206 kts 207°
2026-05-05 00:02 42.45821 -83.10414 5012 ft 197 kts 234°
2026-05-05 00:02 42.45101 -83.11972 5020 ft 193 kts 244°
2026-05-05 00:03 42.44510 -83.13612 5015 ft 194 kts 246°
2026-05-05 00:03 42.43882 -83.15186 4983 ft 193 kts 233°
2026-05-05 00:03 42.42882 -83.16395 4838 ft 195 kts 224°
2026-05-05 00:03 42.41812 -83.17560 4577 ft 196 kts 220°
2026-05-05 00:04 42.40602 -83.18468 4126 ft 204 kts 210°
2026-05-05 00:04 42.39308 -83.19290 3638 ft 207 kts 212°
2026-05-05 00:04 42.38048 -83.20271 3137 ft 210 kts 216°
2026-05-05 00:04 42.36881 -83.21372 2921 ft 193 kts 220°
2026-05-05 00:05 42.35871 -83.22420 2836 ft 175 kts 221°
2026-05-05 00:05 42.34970 -83.23368 2883 ft 153 kts 222°
2026-05-05 00:05 42.34120 -83.24251 2672 ft 157 kts 220°
2026-05-05 00:05 42.33226 -83.25072 2721 ft 156 kts 215°
2026-05-05 00:06 42.32341 -83.25726 3619 ft 142 kts 216°
2026-05-05 00:06 42.31353 -83.26481 3463 ft 182 kts 215°
2026-05-05 00:06 42.30187 -83.27305 2887 ft 192 kts 211°
2026-05-05 00:06 42.29004 -83.28121 2409 ft 192 kts 212°
2026-05-05 00:07 42.27870 -83.28875 2182 ft 170 kts 212°
2026-05-05 00:07 42.26939 -83.29682 2067 ft 147 kts 216°
2026-05-05 00:07 42.26079 -83.30364 1856 ft 138 kts 213°
2026-05-05 00:07 42.25323 -83.30929 1499 ft 133 kts 213°
2026-05-05 00:08 42.24560 -83.31488 1155 ft 122 kts 211°
2026-05-05 00:08 42.23802 -83.32063 923 ft 128 kts 212°
2026-05-05 00:08 42.23015 -83.32637 906 ft 131 kts 212°
2026-05-05 00:08 42.22232 -83.33209 734 ft 129 kts 213°
2026-05-05 00:09 42.21503 -83.33759 667 ft 126 kts 211°
2026-05-05 00:09 42.20823 -83.34267 652 ft 95 kts 208°
2026-05-05 00:09 42.20360 -83.34597 655 ft 60 kts 210°
2026-05-05 00:09 42.20145 -83.34778 652 ft 17 kts 245°
2026-05-05 00:10 42.20092 -83.34932 652 ft 19 kts 248°
2026-05-05 00:10 42.20082 -83.35029 652 ft 10 kts 273°
2026-05-05 00:10 42.20087 -83.35137 653 ft 13 kts 272°
2026-05-05 00:10 42.20087 -83.35269 653 ft 15 kts 268°
2026-05-05 00:11 42.20083 -83.35422 653 ft 17 kts 268°
2026-05-05 00:11 42.20078 -83.35575 653 ft 2 kts 267°
2026-05-05 00:11 42.20078 -83.35576 653 ft 0 kts 267°
2026-05-05 00:12 42.20077 -83.35593 653 ft 9 kts 267°
2026-05-05 00:13 42.20074 -83.35691 652 ft 12 kts 267°
2026-05-05 00:13 42.20069 -83.35812 652 ft 14 kts 267°
2026-05-05 00:13 42.20068 -83.35954 652 ft 16 kts 271°
2026-05-05 00:13 42.20069 -83.36115 652 ft 18 kts 270°
2026-05-05 00:14 42.20091 -83.36293 652 ft 20 kts 283°
2026-05-05 00:14 42.20117 -83.36485 652 ft 21 kts 278°
2026-05-05 00:14 42.20145 -83.36581 652 ft 11 kts 332°
2026-05-05 00:14 42.20225 -83.36552 652 ft 14 kts 25°
2026-05-05 00:15 42.20314 -83.36481 652 ft 16 kts 30°
2026-05-05 00:15 42.20417 -83.36403 652 ft 18 kts 30°
2026-05-05 00:15 42.20526 -83.36315 653 ft 19 kts 32°
2026-05-05 00:15 42.20646 -83.36234 652 ft 20 kts 25°
2026-05-05 00:16 42.20770 -83.36148 652 ft 21 kts 30°
2026-05-05 00:16 42.20897 -83.36047 653 ft 22 kts 30°
2026-05-05 00:16 42.21033 -83.35950 652 ft 23 kts 28°
2026-05-05 00:16 42.21173 -83.35849 653 ft 23 kts 28°
2026-05-05 00:17 42.21319 -83.35742 652 ft 24 kts 29°
2026-05-05 00:17 42.21418 -83.35667 652 ft 25 kts 28°
2026-05-05 00:17 42.21536 -83.35545 653 ft 20 kts 71°
2026-05-05 00:17 42.21548 -83.35295 651 ft 16 kts 88°
2026-05-05 00:18 42.21534 -83.35231 653 ft 8 kts 136°
2026-05-05 00:18 42.21463 -83.35214 652 ft 13 kts 197°
2026-05-05 00:18 42.21407 -83.35249 652 ft 14 kts 206°
2026-05-05 00:18 42.21319 -83.35306 652 ft 15 kts 206°
2026-05-05 00:19 42.21223 -83.35371 653 ft 15 kts 207°
2026-05-05 00:19 42.21135 -83.35435 652 ft 15 kts 210°
2026-05-05 00:19 42.21049 -83.35504 652 ft 13 kts 211°
2026-05-05 00:19 42.20992 -83.35551 652 ft 0 kts 212°
2026-05-05 00:22 42.20984 -83.35557 652 ft 6 kts 205°
2026-05-05 00:22 42.20982 -83.35532 652 ft 1 kts 328°
2026-05-05 00:22 42.20991 -83.35539 652 ft 2 kts 329°
2026-05-05 00:22 42.21009 -83.35553 652 ft 4 kts 324°
2026-05-05 00:23 42.21024 -83.35579 652 ft 0 kts 294°
2026-05-05 00:23 42.21027 -83.35589 652 ft 2 kts 295°
2026-05-05 00:23 42.21028 -83.35591 652 ft 0 kts 296°